STARLINK-30856, 58725

Orbit data source: Space-Track

STARLINK-30856, 58725 is a payload satellite owned by SpaceX/Seattle (US) in LEO that was launched on Wed, 03 Jan 2024 UTC via an FALCON 9 launch vehicle from the Air Force Western Test Range (AFWTR). Payload-class satellites include a variety of spacecraft equipped with specific instruments for various scientific and technological missions. These include communications satellites like Starlink; space stations such as the ISS; scientific satellites like the Hubble; Earth observation satellites from companies like Planet Labs, Umbra, and HawkEye 360; GPS; miniature CubeSats for education and research; and military/defense satellites.

Loading next visibility...
Identifier
58725, 2024-002W
Orbit
LEO
Country
Flag of USUS
Related business
Manufacturer
SpaceX/Seattle
Mission
Operational Commercial Communications
Bus & Motor
STARLINK V2M, Unknown motor
Mass
730 kg wet, ~700 kg dry
Launch date (UTC)
2024-01-03 (2 years ago)
Launch vehicle
FALCON 9
Launch site
Air Force Western Test Range (AFWTR)
Object type
Payload
Rocket body
Debris
Shape & HBR
Box + 2 Pan, 17.7 m
Radar Cross Section
33.884 m², Large (>1 m²)

Expand to show TLE details & history
Last TLE update: 2 days ago

TLE from 2 days ago
0 STARLINK-30856
1 58725U 24002W   26171.21744279  .00001076  00000-0  48445-4 0  9991
2 58725  53.1596 113.6408 0001347 112.0644 248.0500 15.30201405137713
Epoch: 2026-06-20T05:13Z
TLE epoch observation values (Epoch: 2026-06-20T05:13:07.057Z)
Latitude
0.00001°
Longitude
126.92617°
Altitude
476.456 km
Speed
7.629 km/s
True Right ascension
07h 34m 33s
True Declination
0° 00' 00"
Sunlit
Object was in daylight at epoch
Visualization orbit readout
Latitude
Unknown
Longitude
Unknown
Altitude
Unknown
Speed
Unknown
Apparent Right ascension
Unknown
Apparent Declination
Unknown
Sunlit
N/A
Visualization observer readout
Local Sidereal Time
23:07:28
Azimuth
Unknown
Elevation
Unknown
Doppler factor
Unknown
Orbital elements
Apogee altitude
476.391 km
Perigee altitude
474.544 km
Semi-major axis
6,853.604 km
Eccentricity
0.00013
Inclination
53.1596°
RAAN
113.6408°
Arg. of periapsis
112.0644°
True anomaly
248.03568°
Mean anomaly
248.05°
Eccentric anomaly
248.04284°
Mean motion
3.82529 °/min
Orbital period
94.11 mins
BSTAR
0.000048445
Loading maneuver chart data...
Computing Atmospheric mass density...
Loading historical data...
Loading historical data...
Loading historical data...
Loading historical data...
Loading historical data...
Loading historical data...
Loading historical data...

Documentation

Showing up to 5 results
|